• In Deutschland
  • Länderverzeichnis
  • Für 7 Tage
  • Wassertemperatur
  • Satellitenkarten
  • Wetterkarte
  • Widgets
  • user-avatar
    Anmelden

    Stündliche Wetter Bregenz

    Heute, 30 März, Donnerstag

    Zeit Temperatur Niederschläge Wind Luftdruck Luftfeuchtigkeit
    00:00 +2°C° 0 mm 1 m/S 651 mmHg 92%
    01:00 +2°C° 0 mm 1 m/S 651 mmHg 92%
    02:00 +2°C° 0 mm 1 m/S 651 mmHg 91%
    03:00 +2°C° 0 mm 1 m/S 650 mmHg 90%
    04:00 +1°C° 0 mm 1 m/S 650 mmHg 90%
    05:00 +2°C° 0 mm 1 m/S 650 mmHg 88%
    06:00 +3°C° 0 mm 1 m/S 650 mmHg 86%
    07:00 +3°C° 0 mm 1 m/S 651 mmHg 83%
    08:00 +6°C° 0 mm 1 m/S 651 mmHg 76%
    09:00 +8°C° 0 mm 1 m/S 652 mmHg 69%
    10:00 +11°C° 0 mm 1 m/S 652 mmHg 62%
    11:00 +12°C° 0 mm 1 m/S 653 mmHg 59%
    12:00 +13°C° 0 mm 1 m/S 653 mmHg 56%
    13:00 +15°C° 0 mm 1 m/S 653 mmHg 53%
    14:00 +14°C° 0 mm 1 m/S 653 mmHg 55%
    15:00 +14°C° 0 mm 1 m/S 652 mmHg 57%
    16:00 +14°C° 0 mm 1 m/S 652 mmHg 59%
    17:00 +11°C° 0 mm 1 m/S 651 mmHg 70%
    18:00 +8°C° 0 mm 1 m/S 650 mmHg 81%
    19:00 +5°C° 0 mm 1 m/S 649 mmHg 92%
    20:00 +5°C° 0 mm 1 m/S 649 mmHg 91%
    21:00 +5°C° 0 mm 1 m/S 649 mmHg 91%
    22:00 +3°C° 0 mm 2 m/S 650 mmHg 90%
    23:00 +3°C° 0 mm 2 m/S 649 mmHg 90%

    Morgen, 31 März, Freitag

    Zeit Temperatur Niederschläge Wind Luftdruck Luftfeuchtigkeit
    00:00 +3°C° 0 mm 2 m/S 649 mmHg 90%
    01:00 +2°C° 0 mm 2 m/S 649 mmHg 90%
    02:00 +2°C° 0 mm 2 m/S 649 mmHg 89%
    03:00 +2°C° 0 mm 2 m/S 648 mmHg 89%
    04:00 +2°C° 0 mm 2 m/S 648 mmHg 89%
    05:00 +2°C° 0 mm 2 m/S 648 mmHg 88%
    06:00 +3°C° 0 mm 2 m/S 648 mmHg 87%
    07:00 +3°C° 0 mm 2 m/S 648 mmHg 85%
    08:00 +6°C° 0 mm 2 m/S 649 mmHg 76%
    09:00 +8°C° 0 mm 2 m/S 649 mmHg 68%
    10:00 +12°C° 0 mm 1 m/S 649 mmHg 59%
    11:00 +13°C° 0 mm 1 m/S 649 mmHg 55%
    12:00 +14°C° 0 mm 1 m/S 649 mmHg 51%
    13:00 +16°C° 0 mm 1 m/S 649 mmHg 47%
    14:00 +15°C° 0 mm 1 m/S 649 mmHg 49%
    15:00 +15°C° 0 mm 1 m/S 648 mmHg 51%
    16:00 +15°C° 0 mm 1 m/S 648 mmHg 53%
    17:00 +12°C° 0,1 mm 1 m/S 647 mmHg 65%
    18:00 +9°C° 0,1 mm 1 m/S 646 mmHg 77%
    19:00 +6°C° 0,1 mm 1 m/S 645 mmHg 90%
    20:00 +6°C° 0,1 mm 1 m/S 645 mmHg 89%
    21:00 +4°C° 0,1 mm 2 m/S 645 mmHg 89%
    22:00 +4°C° 0,1 mm 2 m/S 645 mmHg 89%
    23:00 +4°C° 0 mm 2 m/S 645 mmHg 89%

    übermorgen, 1 April, Samstag

    Zeit Temperatur Niederschläge Wind Luftdruck Luftfeuchtigkeit
    00:00 +3°C° 0 mm 2 m/S 645 mmHg 88%
    01:00 +3°C° 0 mm 2 m/S 645 mmHg 88%
    02:00 +2°C° 0 mm 2 m/S 644 mmHg 88%
    03:00 +2°C° 0 mm 2 m/S 644 mmHg 88%
    04:00 +2°C° 0 mm 2 m/S 643 mmHg 88%
    05:00 +2°C° 0 mm 2 m/S 644 mmHg 87%
    06:00 +2°C° 0 mm 2 m/S 644 mmHg 85%
    07:00 +3°C° 0 mm 2 m/S 644 mmHg 83%
    08:00 +5°C° 0 mm 2 m/S 644 mmHg 76%
    09:00 +8°C° 0 mm 1 m/S 645 mmHg 68%
    10:00 +10°C° 0 mm 1 m/S 645 mmHg 60%
    11:00 +10°C° 0 mm 2 m/S 645 mmHg 56%
    12:00 +12°C° 0 mm 2 m/S 645 mmHg 51%
    13:00 +13°C° 0 mm 2 m/S 645 mmHg 47%
    14:00 +13°C° 0,2 mm 2 m/S 645 mmHg 52%
    15:00 +13°C° 0,2 mm 2 m/S 645 mmHg 56%
    16:00 +12°C° 0,2 mm 2 m/S 645 mmHg 60%
    17:00 +9°C° 0,9 mm 2 m/S 645 mmHg 70%
    18:00 +6°C° 0,9 mm 2 m/S 644 mmHg 80%
    19:00 +4°C° 0,9 mm 2 m/S 644 mmHg 91%
    20:00 +4°C° 0,3 mm 1 m/S 644 mmHg 91%
    21:00 +4°C° 0,3 mm 1 m/S 645 mmHg 92%
    22:00 +3°C° 0,3 mm 1 m/S 645 mmHg 93%
    23:00 +3°C° 0 mm 1 m/S 645 mmHg 93%

    2 April, Sonntag

    Zeit Temperatur Niederschläge Wind Luftdruck Luftfeuchtigkeit
    00:00 +3°C° 0 mm 1 m/S 645 mmHg 92%
    01:00 +3°C° 0 mm 1 m/S 646 mmHg 92%
    02:00 +3°C° 0 mm 1 m/S 646 mmHg 91%
    03:00 +2°C° 0 mm 1 m/S 646 mmHg 90%
    04:00 +1°C° 0 mm 0 m/S 646 mmHg 90%
    05:00 +1°C° 0 mm 0 m/S 646 mmHg 89%
    06:00 +2°C° 0 mm 0 m/S 647 mmHg 88%
    07:00 +2°C° 0 mm 0 m/S 647 mmHg 87%
    08:00 +6°C° 0 mm 1 m/S 648 mmHg 81%
    09:00 +8°C° 0 mm 1 m/S 648 mmHg 75%
    10:00 +10°C° 0 mm 1 m/S 649 mmHg 69%
    11:00 +10°C° 0,1 mm 1 m/S 649 mmHg 67%
    12:00 +10°C° 0,1 mm 2 m/S 649 mmHg 66%
    13:00 +12°C° 0,1 mm 2 m/S 649 mmHg 64%
    14:00 +12°C° 0,3 mm 2 m/S 649 mmHg 68%
    15:00 +10°C° 0,3 mm 2 m/S 649 mmHg 71%
    16:00 +10°C° 0,3 mm 2 m/S 649 mmHg 75%
    17:00 +8°C° 0,5 mm 2 m/S 649 mmHg 82%
    18:00 +7°C° 0,5 mm 2 m/S 649 mmHg 89%
    19:00 +6°C° 0,5 mm 1 m/S 649 mmHg 96%
    20:00 +6°C° 0,4 mm 1 m/S 649 mmHg 96%
    21:00 +6°C° 0,4 mm 1 m/S 650 mmHg 96%
    22:00 +6°C° 0,4 mm 1 m/S 650 mmHg 97%
    23:00 +6°C° 0,4 mm 1 m/S 650 mmHg 97%

    3 April, Montag

    Zeit Temperatur Niederschläge Wind Luftdruck Luftfeuchtigkeit
    00:00 +6°C° 0,4 mm 1 m/S 650 mmHg 97%
    01:00 +6°C° 0,4 mm 1 m/S 650 mmHg 97%
    02:00 +5°C° 0,2 mm 1 m/S 650 mmHg 97%
    03:00 +5°C° 0,2 mm 1 m/S 650 mmHg 97%
    04:00 +4°C° 0,2 mm 1 m/S 650 mmHg 98%
    05:00 +5°C° 0,1 mm 1 m/S 650 mmHg 97%
    06:00 +5°C° 0,1 mm 1 m/S 650 mmHg 97%
    07:00 +5°C° 0,1 mm 1 m/S 651 mmHg 96%
    08:00 +6°C° 0 mm 1 m/S 651 mmHg 93%
    09:00 +7°C° 0 mm 1 m/S 651 mmHg 90%
    10:00 +8°C° 0 mm 1 m/S 651 mmHg 87%
    11:00 +8°C° 0,1 mm 2 m/S 651 mmHg 83%
    12:00 +9°C° 0,1 mm 2 m/S 651 mmHg 80%
    13:00 +9°C° 0,1 mm 2 m/S 651 mmHg 76%
    14:00 +9°C° 0,1 mm 2 m/S 651 mmHg 76%
    15:00 +10°C° 0,1 mm 2 m/S 651 mmHg 77%
    16:00 +10°C° 0,1 mm 2 m/S 651 mmHg 77%
    17:00 +8°C° 0,3 mm 2 m/S 651 mmHg 84%
    18:00 +7°C° 0,3 mm 2 m/S 650 mmHg 90%
    19:00 +6°C° 0,3 mm 1 m/S 650 mmHg 96%
    20:00 +6°C° 0 mm 1 m/S 650 mmHg 97%
    21:00 +5°C° 0 mm 1 m/S 650 mmHg 97%
    22:00 +4°C° 0 mm 1 m/S 650 mmHg 98%
    23:00 +4°C° 0 mm 1 m/S 650 mmHg 98%

    4 April, Dienstag

    Zeit Temperatur Niederschläge Wind Luftdruck Luftfeuchtigkeit
    00:00 +3°C° 0 mm 1 m/S 650 mmHg 98%
    01:00 +3°C° 0 mm 1 m/S 650 mmHg 98%
    02:00 +3°C° 0 mm 1 m/S 650 mmHg 98%
    03:00 +2°C° 0 mm 1 m/S 649 mmHg 98%
    04:00 +1°C° 0 mm 0 m/S 649 mmHg 98%
    05:00 +3°C° 0 mm 1 m/S 649 mmHg 97%
    06:00 +4°C° 0 mm 1 m/S 650 mmHg 96%
    07:00 +4°C° 0 mm 1 m/S 650 mmHg 95%
    08:00 +5°C° 0,1 mm 1 m/S 650 mmHg 93%
    09:00 +6°C° 0,1 mm 1 m/S 650 mmHg 90%
    10:00 +7°C° 0,1 mm 1 m/S 650 mmHg 87%
    11:00 +8°C° 0,1 mm 1 m/S 650 mmHg 81%
    12:00 +9°C° 0,1 mm 1 m/S 651 mmHg 75%
    13:00 +10°C° 0,1 mm 1 m/S 651 mmHg 68%
    14:00 +9°C° 0 mm 2 m/S 650 mmHg 69%
    15:00 +9°C° 0 mm 2 m/S 650 mmHg 69%
    16:00 +8°C° 0 mm 2 m/S 650 mmHg 70%
    17:00 +7°C° 0 mm 2 m/S 650 mmHg 76%
    18:00 +6°C° 0 mm 2 m/S 650 mmHg 83%
    19:00 +5°C° 0 mm 1 m/S 650 mmHg 90%
    20:00 +4°C° 0 mm 1 m/S 650 mmHg 92%
    21:00 +4°C° 0 mm 1 m/S 650 mmHg 93%
    22:00 +3°C° 0 mm 1 m/S 650 mmHg 95%
    23:00 +2°C° 0 mm 1 m/S 650 mmHg 96%
    Mehr zeigen